Flag for U.S.A. Weather past 2 weeks in Jacksonville, North Carolina, U.S.A.

Now
75 °F

Sunny.


Feels Like: 78 °F
Forecast: 57 / 80 °F
Wind: 10 mph from Southeast

Location: Jacksonville - New River

Current Time: May 5, 2015 at 5:35:17 PM

Latest Report: May 5, 2015 at 4:56 PM


Visibility: 10 mi

Pressure: 30.30 "Hg

Humidity: 42%

Dew point: 50 °F

Location of JacksonvilleLocation

Historic Weather in Jacksonville — Graph

°F

Jacksonville temperature yesterday

Maximum temperature yesterday: 79 °F (at 12:56 PM)
Minimum temperature yesterday: 50 °F (at 5:56 AM)
Average temperature yesterday: 66 °F

Past Weeks' High & Low Weather Summary

 TemperatureHumidityPressure
High79 °F (May 4, 12:56 PM)97% (Apr 26, 4:56 AM)30.37 "Hg (Apr 26, 4:56 AM)
Low46 °F (Apr 28, 3:56 AM)22% (Apr 24, 4:56 PM)29.55 "Hg (Apr 26, 5:56 AM)
Average61 °F68%29.91 "Hg
* Reported Apr 20 3:56 PM — May 5 3:56 PM, Jacksonville, Weather by CustomWeather, © 2015

Note: Actual official high and low records may vary slightly from our data, if they occured in-between our weather recording intervals... More about our weather records

Advertising

Jacksonville weather history for previous 24 hours

 ConditionsComfort  
Time TempWeatherWind HumidityBarometerVisibility
3:56 PM
Tue, May 5
76 °FSunny.13 mph40%30.31 "Hg10 mi
2:56 PM78 °FSunny.9 mph35%30.34 "Hg10 mi
1:56 PM78 °FSunny.8 mph32%30.34 "Hg10 mi
12:56 PM77 °FSunny.9 mph36%30.36 "Hg10 mi
11:56 AM77 °FSunny.9 mph36%30.37 "Hg10 mi
10:56 AM76 °FSunny.7 mph39%30.37 "Hg10 mi
9:56 AM73 °FSunny.5 mph48%30.37 "Hg10 mi
8:56 AM69 °FSunny.No wind73%30.37 "Hg10 mi
7:56 AM61 °FSunny.No wind87%30.37 "Hg10 mi
6:56 AM54 °FClear.No wind93%30.35 "Hg10 mi
5:56 AM53 °FClear.No wind93%30.34 "Hg10 mi
4:56 AM54 °FClear.No wind93%30.33 "Hg10 mi
3:56 AM54 °FClear.No wind93%30.33 "Hg10 mi
2:56 AM55 °FClear.No wind93%30.34 "Hg8 mi
1:56 AM55 °FClear.No wind93%30.34 "Hg8 mi
12:56 AM57 °FClear.No wind93%30.36 "Hg7 mi
11:56 PM
Mon, May 4
57 °FClear.No wind93%30.36 "Hg7 mi
10:56 PM59 °FClear.No wind90%30.36 "Hg10 mi
9:56 PM63 °FClear.No wind81%30.34 "Hg10 mi
8:56 PM66 °FClear.5 mph70%30.33 "Hg10 mi
7:56 PM69 °FSunny.6 mph57%30.32 "Hg10 mi
6:56 PM73 °FSunny.9 mph46%30.31 "Hg10 mi
5:56 PM75 °FSunny.9 mph45%30.31 "Hg10 mi
Weather by CustomWeather, © 2015

See weather overviewHow to use our weather pages